Dewpoint
21 18 16 14 14 16 16 12 9 8 7 6 6 7 10 8 9 8 10 3 6 4 8 8 11 7 9 11 14 16 19 21 16 15 25 44 50 52 53 53 53 53 53 55 56 57 59 61 61 62 62 65 66 66 64 63 62 65 65 64 63 64 65 64 65 64 64 63 63 63 64 64 65 65 64 65 66 65 66 66 66 66 67 66 66 67
21 19 18 17 14 12 13 17 22 16 15 11 9 8 9 11 11 9 10 6 10 27 11 14 11 14 13 15 12 14 18 16 21 23 21 35 50 51 51 51 52 53 56 57 56 56 57 58 60 62 65 66 66 65 63 62 62 63 64 64 64 64 65 64 64 64 64 64 63 63 64 65 64 65 64 64 65 66 65 66 66 66 66 66 65 65
21 18 19 16 13 13 14 19 21 17 19 17 14 12 12 14 14 14 12 6 12 18 16 13 14 17 19 19 17 15 15 17 22 22 23 26 49 50 50 51 52 54 53 55 54 55 55 58 62 65 65 65 63 62 63 62 63 62 63 64 64 64 64 64 64 64 63 64 65 65 65 65 64 65 66 65 65 66 66 65 65 65 65 65 65 65
22 17 17 15 15 17 15 12 18 22 20 18 17 14 10 11 16 16 21 11 11 20 19 23 17 19 26 24 20 21 15 16 8 6 18 20 46 49 48 49 52 52 51 52 52 52 53 55 58 63 64 61 61 63 63 62 62 62 63 63 63 64 64 64 64 64 65 65 64 64 64 66 65 64 67 65 66 66 65 65 65 65 65 65 65 65
19 18 16 15 13 12 20 23 21 20 18 32 32 23 20 17 15 14 18 18 28 21 30 21 23 22 22 17 17 17 19 15 11 13 15 21 45 49 48 49 52 50 51 50 51 51 53 54 57 62 61 60 61 61 61 62 61 62 63 63 63 63 64 64 65 65 65 65 64 64 64 65 65 66 65 65 64 65 65 65 65 64 65 65 64 65
16 19 19 15 14 11 12 14 17 27 17 25 32 29 21 17 16 14 14 9 15 21 26 13 12 20 23 18 16 16 15 13 14 15 11 11 22 41 48 48 50 51 51 50 50 50 52 53 57 60 59 60 61 61 62 62 61 62 63 63 63 63 64 64 64 65 65 64 64 63 62 62 62 63 63 63 64 64 64 64 65 65 65 65 65 65
14 15 20 17 15 12 8 9 15 22 20 21 24 20 17 15 15 12 7 9 13 10 21 29 13 18 22 18 18 19 13 12 14 17 12 10 10 17 38 47 49 50 51 50 50 50 52 55 60 60 60 60 61 61 62 61 61 62 63 63 63 63 64 64 64 64 64 64 64 63 63 63 62 63 63 64 65 64 64 65 64 64 65 65 65 65
14 13 14 14 20 13 25 12 27 20 20 18 24 15 13 12 11 12 8 6 11 23 23 22 14 13 13 19 19 17 16 15 16 13 12 9 15 25 32 48 49 50 51 51 51 52 56 59 59 58 59 60 60 61 61 61 61 62 62 62 62 63 64 64 64 64 64 64 63 63 63 63 63 63 63 64 64 64 65 64 64 64 64 64 64 64
25 21 19 17 22 17 13 15 25 17 16 18 17 14 11 8 9 10 10 15 18 17 12 21 15 12 12 19 16 13 11 12 18 28 33 33 29 44 44 47 48 50 51 52 54 53 59 60 59 58 59 60 61 61 61 61 61 62 62 62 62 63 63 64 63 63 64 64 63 63 63 63 63 64 64 64 65 64 64 63 63 63 63 64 64 64
15 17 17 14 14 14 16 14 16 16 17 14 10 10 10 10 14 16 18 14 21 15 15 17 24 8 9 24 18 18 12 20 36 40 41 42 44 44 45 46 49 49 50 51 56 60 60 60 59 59 59 60 60 60 61 61 62 62 62 62 62 62 63 63 63 63 63 63 63 63 62 62 63 64 64 64 64 64 63 62 62 62 62 63 62 64
11 28 22 15 13 14 13 14 18 16 15 12 9 8 8 8 10 20 20 18 17 11 17 21 26 12 8 17 15 27 29 35 35 40 43 45 46 47 51 54 55 55 56 58 59 60 60 60 60 59 59 59 59 59 60 61 62 62 62 62 62 62 63 63 62 63 63 63 62 62 62 62 62 63 63 63 63 63 62 61 61 61 62 62 62 64
9 8 15 16 25 17 14 15 15 14 13 9 16 12 14 20 20 19 22 19 10 13 17 13 12 18 8 15 26 38 39 38 39 44 47 48 50 51 53 55 56 56 56 57 58 58 59 59 59 59 58 59 59 60 60 62 62 62 62 62 61 62 63 63 62 62 63 63 63 62 62 61 62 63 63 63 62 63 61 61 61 61 62 62 63 63
10 7 16 19 26 16 13 11 14 13 13 12 16 14 12 14 15 14 13 11 12 15 17 11 7 7 10 29 36 39 41 45 47 48 49 49 50 51 53 55 56 56 56 56 56 57 57 58 58 58 58 58 58 58 59 61 62 62 62 62 61 62 62 63 63 62 62 62 63 63 62 63 63 63 63 62 62 62 61 61 61 61 61 61 61 62
15 11 13 15 17 19 16 16 19 15 13 14 13 18 13 10 9 6 13 13 13 17 16 15 23 13 27 36 38 39 40 45 48 50 51 50 50 50 51 55 56 56 55 56 56 56 56 57 58 59 58 57 57 57 58 59 62 61 61 61 61 61 62 63 63 62 62 62 62 63 64 63 63 63 62 62 62 62 62 61 61 61 61 61 61 61
14 10 11 15 16 17 17 16 16 19 15 10 12 12 19 15 16 8 9 7 10 14 23 19 19 17 11 35 43 39 40 44 48 50 52 52 51 51 52 53 55 56 55 56 56 57 57 56 57 58 59 58 57 58 58 58 61 61 60 60 60 61 62 62 63 62 62 61 62 63 64 64 63 62 62 62 62 62 62 61 61 61 61 61 61 61
15 20 22 12 12 15 15 16 17 16 14 14 12 11 14 18 17 11 14 12 16 17 21 21 18 29 35 44 41 42 42 46 50 50 51 51 51 52 52 52 53 54 56 55 55 56 56 57 57 56 57 58 58 59 59 60 61 60 60 60 60 60 60 62 62 61 62 62 63 64 64 64 63 63 62 62 62 62 62 62 61 61 61 61 61 62
17 19 15 12 12 15 15 17 16 15 14 23 11 13 13 20 15 15 16 23 19 16 16 19 22 30 36 37 40 42 42 47 50 50 49 49 49 50 52 53 53 54 55 55 55 55 56 57 56 57 56 56 59 61 60 60 60 60 60 60 60 60 61 61 61 62 62 62 63 64 64 64 63 63 62 62 62 62 62 62 61 61 61 61 62 62
18 24 17 16 10 12 15 15 14 13 12 13 14 16 14 13 18 17 14 16 11 10 14 20 16 21 24 27 37 41 42 46 48 48 49 50 50 51 52 53 53 54 54 55 56 56 56 57 57 57 57 58 58 58 59 60 60 59 59 60 61 61 61 61 62 62 63 63 63 64 64 64 64 63 62 62 62 62 61 60 61 61 60 62 62 61
14 12 16 13 13 14 13 13 13 13 13 11 12 14 16 13 11 20 7 8 10 11 15 15 25 33 35 32 40 43 45 46 47 48 48 49 51 51 52 53 54 54 53 54 56 56 56 56 57 57 58 58 59 59 59 59 59 60 60 61 62 61 62 62 62 62 63 63 64 64 64 64 64 62 61 61 61 61 60 60 60 60 61 61 61 61
25 17 22 16 13 14 12 13 17 17 12 12 12 10 14 21 24 16 14 14 17 16 11 16 25 27 38 41 44 44 46 47 46 47 48 49 50 51 53 54 55 55 55 56 56 57 57 57 57 58 58 58 57 59 59 59 60 60 61 61 62 61 62 62 61 61 60 62 63 63 63 63 62 62 61 61 61 60 60 60 61 61 60 59 60 60
21 25 16 25 17 14 14 17 18 21 20 14 14 14 15 25 27 17 29 16 15 15 17 19 21 29 39 46 45 46 47 47 48 48 49 49 51 52 51 52 52 52 52 53 53 53 54 56 58 58 58 58 59 60 60 60 60 60 61 60 61 61 61 62 62 62 62 63 63 62 62 62 60 62 62 61 61 61 61 61 61 60 59 59 59 59
25 20 19 25 17 22 17 15 15 14 15 22 16 16 12 16 17 11 19 21 22 19 17 21 21 35 45 47 46 45 47 49 48 49 49 50 51 51 51 51 50 50 50 50 51 51 50 51 52 54 57 59 59 59 59 60 60 60 59 60 60 60 61 61 62 62 62 63 63 62 62 61 61 62 62 61 61 61 62 60 60 59 59 58 58 59
33 33 26 18 21 22 16 16 16 16 20 18 21 27 11 17 20 16 13 23 19 28 23 28 27 32 46 47 46 45 45 47 49 50 50 50 50 49 50 50 50 49 47 47 48 49 49 49 49 50 50 51 53 55 57 58 59 59 59 59 60 59 60 61 61 61 61 61 61 61 60 61 61 61 60 60 61 62 62 60 59 59 58 57 58 58
44 23 23 24 21 22 20 21 21 19 18 28 32 34 34 34 34 29 25 28 26 28 25 24 26 33 45 47 47 46 46 47 48 48 48 49 49 49 49 47 46 46 45 45 45 45 46 46 46 47 47 48 49 51 53 54 55 59 60 59 58 60 60 60 61 61 61 61 61 60 61 61 61 61 60 60 61 62 62 61 60 58 58 57 58 59
29 32 28 23 23 27 26 24 22 31 33 35 33 38 38 39 39 38 31 30 27 28 28 25 25 33 44 46 45 45 45 45 46 46 46 46 48 47 44 43 44 43 43 43 43 43 44 44 45 45 46 46 47 49 51 52 53 54 56 59 59 59 59 60 59 59 60 60 61 60 60 60 60 59 59 59 61 61 61 61 59 57 56 57 58 58
33 34 31 23 21 17 16 18 26 29 33 35 39 38 39 38 39 33 26 27 26 28 33 28 32 40 44 43 43 44 44 43 44 45 46 45 45 42 42 42 42 42 42 42 42 42 42 43 43 44 44 45 46 47 48 50 51 52 53 55 60 58 58 59 59 60 59 59 59 60 60 60 60 59 59 59 59 61 61 60 59 58 57 58 57 55
36 38 36 32 28 27 28 33 40 39 37 36 37 39 39 39 38 37 33 28 27 29 31 36 38 39 40 40 40 41 42 42 42 42 42 41 41 40 40 40 40 40 40 40 41 41 41 42 42 43 44 45 45 46 47 48 49 50 52 54 57 59 59 58 59 59 58 58 58 60 60 60 59 60 59 59 60 61 60 60 60 57 58 57 55 54
37 33 37 36 35 34 36 36 38 36 36 39 38 38 38 39 39 38 31 30 35 29 27 36 41 38 37 39 39 39 40 40 39 40 40 41 40 39 39 39 40 38 39 39 39 40 40 41 41 42 43 44 45 46 46 48 48 49 51 52 54 59 59 59 58 58 58 59 58 59 59 59 59 59 58 60 60 60 60 60 59 57 55 54 53 54
36 30 37 36 36 36 37 35 38 37 36 36 37 38 38 38 39 37 38 40 38 27 28 35 40 37 37 38 39 39 39 38 38 38 38 39 39 38 38 37 37 38 38 38 38 39 39 39 40 41 42 43 44 45 46 47 48 49 49 50 51 54 60 59 59 58 58 59 58 58 58 58 58 58 59 59 60 59 59 58 57 57 53 53 53 53
36 30 37 37 35 37 38 38 38 35 36 35 35 35 37 37 37 37 37 39 39 38 38 37 36 35 37 37 37 38 39 38 38 38 37 37 37 38 38 37 37 37 38 38 38 38 38 39 40 41 42 43 43 44 45 46 47 48 48 49 50 52 56 60 59 58 59 59 58 58 58 59 59 59 59 59 58 59 58 58 58 55 54 54 54 55
34 29 37 36 32 33 37 37 36 35 34 33 35 37 37 36 36 37 37 37 38 38 38 37 35 34 38 37 37 37 37 38 37 37 37 37 37 37 37 37 37 37 37 38 38 38 38 39 39 40 41 42 43 44 45 46 47 47 48 48 49 51 54 60 58 57 58 58 58 58 58 58 59 59 58 58 58 59 58 58 58 58 57 56 55 54
35 29 38 35 29 29 37 35 33 33 32 32 33 34 36 35 34 35 34 37 36 35 38 37 34 33 37 37 36 37 37 37 36 36 36 36 37 37 37 36 36 36 37 37 38 38 38 38 39 40 40 41 42 43 45 45 46 46 47 47 48 50 52 54 57 58 58 58 58 58 58 58 58 58 58 58 58 57 57 58 58 57 55 53 52 51
35 29 26 28 27 29 37 35 34 35 32 29 30 34 36 36 36 35 35 36 37 37 33 32 32 36 36 36 35 36 36 36 36 36 37 36 37 37 38 37 35 35 36 37 37 37 38 38 39 39 40 41 41 42 44 45 45 46 47 47 48 49 49 50 51 54 58 58 58 58 57 57 57 57 57 57 57 57 57 57 57 56 54 52 51 49
33 33 28 31 25 29 36 36 35 30 25 25 35 38 38 35 34 33 33 35 36 37 35 36 36 36 35 35 34 35 35 36 36 37 37 37 38 37 38 38 36 35 35 36 37 37 38 38 39 39 40 40 41 41 43 44 45 45 46 47 47 48 48 48 48 50 51 53 56 56 56 55 55 56 56 56 56 56 55 55 55 55 53 51 50 48
33 33 28 31 27 29 32 32 27 24 25 35 37 38 39 36 35 34 34 35 35 36 36 35 35 35 35 35 35 35 37 38 37 35 35 36 36 36 37 37 36 35 35 36 36 37 38 38 39 39 39 40 41 42 42 43 44 44 45 45 46 47 47 47 47 48 48 49 51 53 53 53 53 53 54 54 54 53 53 53 54 54 53 52 50 48
29 29 29 28 30 29 28 29 22 24 33 37 37 37 39 38 37 35 33 34 35 36 36 35 35 35 35 35 35 36 36 37 37 37 36 37 37 36 37 36 36 35 35 35 36 36 37 38 39 40 40 41 41 41 41 42 43 43 43 44 44 45 46 46 47 47 47 48 49 49 51 52 51 52 52 52 52 51 51 51 51 51 51 51 51 49
38 35 31 28 30 25 27 28 28 33 32 32 33 35 36 34 36 34 29 32 36 36 36 35 35 36 35 35 36 36 35 34 34 36 39 39 38 39 38 38 37 37 36 36 36 36 37 38 39 40 40 40 40 40 40 41 41 42 42 42 43 44 44 45 45 46 47 47 48 48 49 49 49 49 49 48 49 50 50 50 49 49 49 47 48 47
37 32 33 29 26 28 28 26 27 27 24 28 34 38 40 40 39 39 32 31 36 38 37 36 35 36 36 37 37 37 37 36 31 32 37 38 38 37 37 38 38 38 38 37 37 37 37 37 38 40 40 39 38 39 40 40 40 41 41 42 43 42 43 44 44 45 46 47 48 48 48 48 48 48 47 48 48 48 48 49 49 49 49 47 46 46
36 37 35 30 29 29 27 26 27 24 25 32 34 37 40 40 40 39 33 28 36 39 39 38 36 37 38 38 38 39 37 31 30 32 37 38 38 37 36 36 36 37 38 38 37 37 37 37 38 39 40 39 38 38 39 40 40 40 40 41 41 42 42 43 44 45 45 46 47 48 49 48 48 47 47 47 47 48 48 48 49 49 49 49 47 45
35 30 29 29 26 27 28 26 23 28 27 32 36 38 38 42 40 36 27 25 35 38 39 38 37 38 38 38 37 35 33 30 30 33 38 38 39 39 38 37 35 35 36 37 38 38 38 39 38 38 38 38 38 38 38 39 39 40 40 41 41 41 41 42 44 45 46 46 47 48 49 49 48 48 48 47 48 48 48 48 49 48 48 48 47 45
27 28 29 26 25 28 27 26 29 29 33 36 37 38 36 41 39 29 24 29 37 38 37 37 36 37 37 36 36 33 35 36 37 38 39 39 38 38 39 39 37 36 35 36 37 39 38 38 38 38 38 39 39 38 38 38 38 38 39 40 40 41 42 42 43 45 45 46 46 46 47 49 48 48 48 49 48 48 48 49 48 49 48 48 49 48
27 27 29 29 28 26 24 25 25 29 34 38 37 37 38 36 28 25 33 40 38 36 37 36 36 36 36 36 36 36 37 39 39 39 39 39 39 39 38 37 37 36 35 36 37 37 37 37 37 38 39 39 39 39 39 38 38 38 38 38 39 40 42 42 41 43 44 45 45 46 46 47 48 49 48 49 49 48 48 49 49 49 49 49 48 47
29 30 28 27 28 28 27 26 25 21 32 37 38 35 36 30 31 37 37 37 36 36 35 36 36 37 37 36 37 37 38 38 38 38 38 39 39 39 39 38 38 37 35 35 35 36 37 36 37 37 38 39 40 39 39 39 38 38 38 38 39 40 40 41 40 41 42 43 44 45 45 46 46 47 50 49 49 48 48 49 49 48 49 48 48 46
33 29 28 28 30 24 23 23 24 31 36 38 36 31 36 37 38 38 37 35 36 35 34 35 36 37 37 37 37 37 37 37 38 38 39 39 39 39 39 39 39 39 38 37 36 35 36 36 37 37 38 38 39 39 39 39 39 39 38 39 40 40 40 40 40 40 41 42 43 44 45 44 45 45 46 46 47 47 47 47 47 47 48 46 46 45
33 30 32 28 32 26 27 31 35 38 39 38 37 36 36 37 36 36 35 35 35 35 36 36 36 38 38 37 37 36 36 37 37 38 38 38 39 39 39 39 39 39 39 38 37 37 35 35 36 37 37 38 39 39 40 39 39 38 38 40 41 41 40 40 40 40 41 42 42 42 42 43 43 42 41 42 43 42 43 40 39 40 40 41 41 41
35 36 35 34 33 36 37 36 37 36 36 36 36 36 35 36 36 36 36 35 36 36 36 36 36 36 36 36 36 36 36 36 37 37 38 39 39 40 39 39 40 39 39 38 38 38 37 37 37 36 37 37 38 39 40 40 40 39 40 41 41 41 41 41 40 40 40 41 42 43 40 39 38 38 37 39 41 41 40 42 38 38 39 40 40 39
37 36 36 32 35 32 28 36 33 33 34 34 34 35 36 35 35 35 34 33 33 34 34 36 36 35 35 35 35 35 35 35 36 36 36 37 37 37 37 37 37 38 38 38 39 39 38 37 37 37 37 37 38 38 39 41 41 41 41 42 42 42 41 40 40 41 42 42 42 42 43 41 39 40 35 35 36 38 38 36 36 36 36 37 38 38
30 34 32 31 32 30 31 33 33 33 33 33 33 33 33 34 35 35 35 35 35 36 36 36 36 36 36 36 38 38 38 38 37 37 37 37 36 34 34 36 37 37 38 39 39 39 39 38 37 37 37 37 38 39 39 40 40 41 41 42 43 43 43 41 40 41 41 42 43 42 43 43 37 37 36 35 35 36 37 37 35 35 35 36 37 37
29 32 27 27 27 29 31 31 31 32 32 33 33 33 33 34 34 34 35 35 35 35 36 36 36 36 36 35 35 35 36 37 39 38 37 37 37 37 38 38 38 37 37 38 39 40 39 40 39 38 38 37 38 38 39 38 39 40 41 41 43 43 42 41 40 40 40 41 42 42 41 43 43 42 41 39 36 35 35 36 36 35 35 35 36 37
25 24 25 26 26 26 27 29 31 30 30 33 33 33 33 34 33 33 33 34 34 35 35 35 36 36 36 35 34 33 31 32 33 34 33 36 38 37 37 37 38 38 38 39 39 40 40 40 40 39 38 38 40 39 37 37 38 39 41 42 42 43 42 41 41 41 41 41 41 42 42 42 43 44 42 41 40 37 36 34 35 35 35 35 35 35
25 25 28 29 28 27 28 29 29 30 31 32 33 33 33 33 33 33 33 33 33 33 34 34 33 33 33 33 32 31 31 31 29 30 29 29 30 37 40 39 38 39 39 40 40 40 40 40 40 41 40 41 41 41 41 40 40 39 39 39 41 42 40 41 40 40 41 40 41 40 42 42 41 43 43 39 38 36 35 34 35 34 35 35 35 35